Location: Castillon
(43.0896°N, 0.2156°E)
Time: 11:00:38
(UTC+00:00)

Cosmos 1544 Rocket - Pass Details

Date: 30 October 2021
Orbit: 603 x 631 km, 82.5° (Epoch: 08 December)

Event Time Altitude Azimuth Distance (km) Brightness Sun altitude
Rises 17:21:58 0° 188° (S) 2,909 7.3 -5.8°
Reaches altitude 10° 17:24:12 10° 189° (S) 2,006 6.5 -6.2°
Maximum altitude 17:28:40 83° 278° (W) 640 3.7 -7.0°
Drops below altitude 10° 17:33:08 10° 7° (N) 2,013 6.0 -7.8°
Sets 17:35:23 0° 8° (N) 2,921 6.8 -8.2°
